Temp
-0 -1 -1 -1 -1 -1 -1 -2 -2 -2 -1 0 -1 0 -0 0 -0 0 1 1 1 -0 -1 -1 -1 -0 -0 0 1 2 1 -0 -0 -2 -2 -2 -2 -1
-1 -1 -2 -2 -2 -2 -2 -2 -2 -3 -3 -1 -1 -1 -1 -1 -1 -0 -0 -0 1 1 -0 -0 -1 -1 -1 -1 0 0 1 0 -1 -2 -2 -2 -2 -1
-2 -2 -2 -2 -2 -2 -2 -3 -3 -3 -3 -2 -2 -1 -1 -1 -0 -1 -1 -1 -1 -0 0 -0 -1 -1 -1 -1 -1 -1 -0 -0 -1 -2 -2 -2 -2 -2
-2 -2 -2 -2 -2 -2 -2 -2 -2 -3 -4 -4 -1 -2 -2 -1 -1 -2 -2 -2 -2 -1 -1 -1 -1 -1 -1 -1 -1 -1 -1 -0 -1 -2 -2 -2 -2 -2
-2 -2 -2 -2 -2 -2 -2 -2 -2 -2 -2 -4 -4 -2 -2 -2 -3 -3 -3 -3 -2 -2 -2 -2 -1 -1 -1 -1 -1 -1 -1 -1 -1 -1 -2 -2 -2 -2
-4 -4 -3 -3 -4 -3 -4 -3 -3 -3 -4 -5 -5 -4 -3 -2 -4 -4 -3 -2 -3 -3 -2 -2 -2 -2 -1 -2 -2 -1 -1 -1 -1 -1 -2 -2 -1 -2
-5 -5 -5 -5 -6 -7 -6 -6 -7 -7 -7 -7 -7 -6 -5 -4 -4 -4 -4 -3 -3 -3 -3 -3 -3 -2 -2 -1 -3 -1 -2 -1 -1 -1 -2 -2 -2 -2
-7 -7 -7 -7 -8 -9 -9 -10 -11 -12 -11 -10 -9 -8 -7 -6 -5 -5 -4 -4 -3 -3 -3 -2 -3 -3 -3 -3 -2 -2 -2 -2 -2 -2 -2 -2 -3 -3
-10 -10 -10 -10 -11 -11 -11 -11 -11 -12 -12 -11 -10 -9 -8 -7 -6 -5 -5 -5 -4 -3 -4 -3 -3 -3 -2 -2 -3 -2 -2 -2 -3 -3 -2 -3 -3 -4
-12 -12 -12 -12 -12 -12 -12 -12 -12 -12 -12 -12 -11 -10 -9 -8 -7 -6 -5 -5 -4 -3 -4 -4 -4 -3 -3 -3 -3 -2 -2 -3 -4 -4 -4 -4 -4 -4
-13 -13 -13 -13 -13 -13 -13 -13 -13 -12 -12 -11 -11 -10 -9 -8 -7 -7 -6 -6 -5 -4 -4 -5 -4 -5 -3 -3 -3 -3 -3 -4 -4 -4 -5 -5 -5 -5
-14 -14 -13 -13 -13 -13 -13 -14 -14 -13 -12 -11 -10 -9 -9 -8 -7 -7 -7 -7 -7 -6 -5 -4 -5 -4 -4 -3 -3 -3 -4 -4 -5 -6 -5 -5 -5 -5
-15 -15 -14 -14 -13 -14 -14 -14 -14 -13 -12 -12 -10 -9 -9 -8 -7 -7 -8 -7 -6 -6 -6 -5 -5 -4 -4 -4 -4 -4 -5 -5 -5 -6 -6 -5 -6 -6
-16 -15 -14 -14 -14 -14 -14 -14 -14 -13 -12 -12 -11 -10 -9 -8 -7 -7 -7 -7 -7 -6 -5 -5 -5 -4 -4 -4 -4 -5 -5 -5 -6 -6 -5 -7 -6 -6
-16 -15 -14 -15 -14 -15 -14 -14 -13 -13 -13 -12 -12 -10 -9 -8 -7 -7 -7 -7 -7 -6 -5 -6 -6 -6 -6 -5 -5 -5 -6 -6 -6 -6 -8 -7 -7 -7
-17 -15 -15 -15 -15 -15 -15 -14 -13 -13 -13 -13 -11 -10 -9 -9 -8 -8 -8 -8 -7 -7 -7 -7 -7 -7 -7 -7 -7 -7 -7 -6 -7 -8 -7 -7 -8 -8
-17 -15 -15 -15 -15 -15 -14 -14 -13 -13 -13 -12 -11 -10 -10 -9 -9 -9 -9 -8 -8 -8 -9 -8 -8 -7 -8 -8 -7 -6 -7 -8 -8 -8 -8 -8 -8 -8
-16 -16 -16 -16 -15 -15 -14 -13 -13 -12 -12 -12 -11 -11 -10 -10 -10 -10 -9 -9 -9 -9 -9 -8 -8 -8 -7 -7 -8 -8 -8 -8 -8 -8 -8 -9 -9 -9
-16 -16 -16 -16 -15 -15 -14 -14 -13 -12 -12 -12 -11 -11 -11 -11 -11 -10 -9 -9 -10 -9 -9 -8 -8 -9 -8 -8 -8 -8 -8 -8 -9 -9 -9 -10 -10 -10
-16 -16 -16 -16 -15 -15 -14 -14 -13 -12 -12 -12 -12 -12 -12 -11 -11 -11 -10 -10 -10 -10 -10 -9 -9 -9 -9 -8 -9 -9 -9 -9 -10 -10 -10 -10 -11 -11
-16 -17 -17 -16 -15 -15 -14 -13 -13 -13 -12 -12 -12 -13 -13 -12 -11 -10 -10 -10 -10 -10 -9 -9 -9 -9 -9 -9 -9 -9 -10 -10 -10 -11 -11 -11 -11 -11
-17 -17 -16 -16 -15 -15 -14 -13 -12 -12 -12 -13 -13 -13 -12 -11 -10 -10 -11 -10 -10 -10 -9 -9 -9 -9 -10 -10 -10 -10 -10 -11 -11 -11 -11 -11 -11 -12
-17 -17 -16 -16 -15 -14 -13 -13 -13 -12 -13 -12 -12 -12 -11 -11 -11 -10 -10 -10 -10 -10 -10 -10 -10 -10 -10 -10 -10 -10 -11 -11 -11 -11 -11 -12 -12 -12
Height
2964 2959 2954 2951 2948 2942 2938 2933 2927 2917 2912 2912 2910 2912 2910 2910 2907 2906 2906 2905 2905 2903 2902 2900 2902 2904 2903 2903 2904 2905 2906 2907 2911 2913 2913 2917 2921 2923
2951 2946 2941 2936 2932 2929 2925 2921 2917 2909 2899 2902 2896 2895 2894 2892 2892 2891 2888 2889 2889 2889 2886 2883 2883 2884 2884 2888 2890 2892 2893 2894 2897 2898 2898 2902 2907 2910
2939 2933 2929 2922 2918 2914 2910 2907 2902 2898 2887 2885 2884 2882 2879 2875 2874 2873 2873 2871 2870 2871 2871 2870 2868 2867 2867 2869 2872 2876 2879 2881 2883 2883 2885 2888 2892 2895
2926 2921 2916 2910 2906 2901 2896 2893 2887 2883 2875 2867 2870 2866 2863 2861 2857 2855 2854 2853 2853 2853 2854 2854 2854 2853 2852 2852 2853 2857 2862 2865 2866 2869 2872 2875 2877 2879
2916 2909 2903 2898 2893 2889 2884 2879 2874 2868 2862 2853 2850 2851 2849 2846 2843 2842 2839 2838 2837 2837 2837 2837 2837 2836 2836 2835 2833 2840 2845 2848 2849 2851 2856 2858 2861 2862
2904 2898 2892 2886 2880 2874 2869 2865 2857 2851 2846 2840 2836 2834 2833 2831 2828 2826 2824 2824 2819 2820 2821 2821 2821 2821 2820 2818 2820 2826 2829 2830 2823 2838 2840 2844 2846 2850
2891 2884 2879 2873 2867 2861 2853 2849 2841 2834 2829 2825 2821 2818 2817 2815 2813 2812 2809 2808 2805 2805 2807 2806 2809 2807 2806 2805 2804 2804 2811 2816 2819 2818 2824 2830 2833 2835
2875 2869 2864 2859 2851 2845 2839 2833 2828 2821 2816 2811 2807 2804 2802 2801 2799 2797 2795 2793 2790 2793 2789 2789 2794 2793 2793 2793 2792 2793 2796 2800 2803 2808 2810 2814 2818 2820
2859 2852 2846 2840 2833 2826 2822 2816 2812 2810 2808 2801 2794 2793 2789 2788 2786 2783 2783 2780 2778 2779 2776 2772 2776 2779 2780 2779 2781 2783 2782 2783 2788 2791 2795 2800 2804 2807
2846 2840 2833 2826 2819 2813 2806 2798 2794 2795 2795 2791 2786 2781 2778 2775 2774 2771 2768 2766 2765 2765 2765 2760 2761 2763 2764 2766 2765 2768 2768 2770 2774 2778 2782 2787 2791 2795
2834 2829 2822 2815 2809 2803 2794 2785 2781 2781 2781 2778 2775 2771 2767 2764 2763 2759 2756 2754 2749 2751 2750 2750 2749 2750 2752 2754 2752 2754 2755 2759 2763 2766 2770 2776 2780 2785
2822 2816 2811 2806 2799 2793 2784 2776 2771 2769 2766 2764 2763 2759 2755 2752 2751 2748 2745 2741 2739 2735 2738 2739 2738 2740 2739 2740 2740 2741 2743 2748 2751 2755 2760 2766 2771 2776
2811 2805 2801 2795 2790 2783 2777 2769 2764 2760 2757 2753 2750 2747 2743 2740 2738 2736 2734 2730 2727 2725 2726 2726 2725 2726 2727 2727 2728 2729 2733 2737 2742 2748 2754 2759 2763 2769
2803 2798 2792 2786 2780 2774 2767 2761 2757 2752 2749 2745 2741 2736 2732 2728 2726 2724 2722 2719 2717 2713 2714 2711 2711 2712 2714 2716 2718 2720 2724 2729 2736 2743 2748 2752 2757 2761
2798 2791 2784 2778 2772 2765 2759 2754 2749 2746 2742 2737 2732 2727 2721 2717 2715 2712 2709 2706 2704 2701 2699 2697 2697 2699 2703 2706 2709 2712 2718 2726 2733 2737 2741 2746 2750 2754
2789 2782 2777 2771 2765 2758 2752 2748 2744 2740 2735 2731 2725 2719 2713 2708 2705 2701 2698 2695 2693 2690 2688 2688 2690 2692 2696 2700 2705 2712 2718 2723 2727 2732 2736 2739 2743 2746
2780 2774 2769 2763 2756 2751 2746 2742 2738 2734 2730 2725 2718 2710 2705 2700 2696 2693 2690 2688 2687 2686 2685 2686 2688 2691 2695 2701 2707 2711 2714 2719 2723 2727 2731 2734 2737 2740
2774 2766 2761 2755 2749 2744 2739 2735 2733 2729 2724 2717 2710 2704 2697 2691 2688 2686 2685 2685 2684 2685 2687 2689 2691 2694 2698 2701 2705 2709 2713 2717 2720 2723 2726 2728 2731 2733
2768 2761 2755 2749 2744 2739 2735 2730 2727 2723 2717 2711 2703 2695 2688 2684 2682 2681 2682 2683 2684 2686 2689 2691 2692 2695 2699 2702 2705 2708 2711 2714 2716 2718 2720 2723 2724 2725
2760 2754 2749 2744 2740 2736 2731 2727 2723 2718 2712 2705 2696 2688 2682 2678 2677 2678 2680 2682 2684 2687 2689 2692 2694 2697 2700 2703 2704 2707 2707 2709 2711 2713 2715 2717 2719 2719
2755 2750 2745 2741 2737 2733 2728 2724 2719 2714 2707 2698 2691 2684 2680 2678 2678 2680 2682 2684 2687 2689 2692 2695 2697 2698 2699 2700 2701 2703 2704 2705 2706 2707 2708 2710 2711 2714
2749 2745 2741 2738 2734 2730 2725 2721 2716 2711 2702 2695 2689 2686 2684 2683 2683 2684 2687 2690 2692 2693 2695 2696 2697 2697 2697 2698 2698 2698 2699 2700 2700 2701 2702 2703 2705 2708
2745 2741 2738 2735 2731 2727 2722 2718 2713 2706 2699 2695 2692 2691 2689 2690 2691 2692 2694 2694 2694 2695 2696 2696 2696 2696 2695 2694 2695 2696 2697 2697 2698 2699 2700 2700 2702 2705
Wind_Speed
55 54 53 52 53 56 58 59 57 61 63 62 62 60 59 56 54 52 50 52 52 51 52 49 53 54 56 52 49 49 50 49 49 49 49 48 47 46
54 54 54 53 52 51 52 54 56 57 60 60 62 61 60 58 57 57 56 52 49 50 51 56 57 57 59 51 50 49 52 51 51 53 54 51 49 49
52 53 52 52 53 53 53 54 54 55 60 60 60 58 59 60 60 58 55 54 52 51 50 51 55 52 46 54 52 53 52 52 52 56 53 50 51 51
49 49 50 51 52 53 54 55 56 56 57 60 58 56 57 57 55 56 53 52 52 51 50 50 50 53 53 53 57 56 56 58 57 57 52 56 56 59
49 49 50 51 51 53 54 55 57 60 62 62 62 63 59 56 55 49 48 48 50 50 47 47 49 52 54 55 54 55 55 61 60 59 57 61 59 55
49 49 50 51 53 54 56 57 60 62 63 64 62 63 61 59 55 53 51 39 39 43 44 46 44 45 48 49 46 53 53 61 57 59 58 54 55 54
50 51 51 52 53 54 58 58 60 61 62 62 61 59 59 58 55 53 51 52 59 55 49 50 43 40 43 45 44 48 56 60 60 49 58 60 56 56
53 53 53 53 53 54 55 55 56 56 58 59 58 57 56 52 52 52 52 52 54 54 51 53 41 43 37 41 45 47 51 50 50 55 58 50 54 55
54 54 54 54 54 55 54 54 54 53 53 54 54 53 52 47 48 50 48 50 53 51 52 55 49 42 40 42 40 45 42 40 40 45 52 52 51 48
52 50 51 51 50 51 52 53 52 45 45 47 50 49 49 46 45 46 47 48 50 51 48 50 49 45 43 42 36 34 34 34 37 46 48 45 41 40
48 46 45 46 46 45 49 50 46 41 40 43 44 45 43 40 41 42 42 43 49 50 49 48 45 44 36 44 37 37 42 40 39 41 40 40 34 34
46 47 45 44 44 44 45 43 40 38 38 38 38 40 38 38 36 36 37 42 46 51 43 45 48 43 46 40 38 39 40 37 34 32 31 33 31 24
45 48 46 45 43 41 39 37 37 37 35 39 40 39 37 36 36 36 34 37 38 40 44 46 47 41 46 40 36 38 35 35 32 32 33 29 23 22
46 46 45 44 43 40 37 33 32 32 33 38 41 38 36 34 34 34 35 35 36 41 41 44 47 42 43 36 35 28 33 32 31 30 26 18 20 23
43 44 43 43 41 39 35 31 29 29 32 36 36 38 34 33 33 34 34 36 38 39 42 38 34 29 27 27 19 21 30 30 28 22 17 18 20 20
41 44 42 41 38 37 32 28 27 27 31 35 40 36 36 35 31 30 32 32 25 20 17 17 19 19 17 16 16 25 28 24 15 11 17 18 17 17
45 45 43 40 38 36 29 26 25 25 30 33 37 38 38 33 28 27 27 18 7 0 4 5 8 13 19 21 22 19 11 9 13 15 15 15 18 20
45 44 41 39 37 35 31 28 26 26 31 33 39 38 35 28 24 21 18 10 6 4 5 8 9 14 17 13 8 8 10 12 13 13 15 18 22 24
41 40 37 36 35 32 31 30 29 28 32 38 41 37 31 24 20 15 12 10 7 8 8 12 10 8 7 7 8 10 11 12 14 16 18 18 20 21
38 37 34 33 32 31 30 29 29 29 34 40 38 31 24 16 10 7 10 10 10 11 12 10 7 6 7 8 9 10 11 12 13 14 15 16 18 21
36 34 31 30 30 29 29 28 28 30 39 38 28 19 10 1 9 14 15 14 15 12 9 8 7 5 5 6 7 8 9 10 11 13 16 16 18 20
34 32 29 27 28 27 26 26 27 34 36 27 13 8 8 13 17 19 19 14 11 10 7 3 2 3 4 6 7 8 8 9 9 9 11 13 17 17
31 28 26 25 25 25 26 26 29 35 27 10 8 9 16 21 18 15 13 11 8 4 2 1 2 3 4 5 6 4 4 6 9 10 12 13 11 9
Wind_Direction
286 285 283 283 281 280 279 279 281 283 284 283 285 283 282 283 283 282 276 270 268 266 260 259 256 260 265 269 260 261 256 252 250 248 247 248 250 254
288 287 287 285 284 283 281 281 280 281 282 281 281 282 283 282 281 280 280 278 271 267 264 266 258 262 257 258 259 259 262 250 247 247 247 243 248 253
290 289 287 286 285 285 284 284 283 282 283 282 284 285 284 282 280 279 278 278 277 272 270 267 263 266 262 255 255 257 257 253 246 247 251 248 247 250
295 293 291 289 289 289 290 290 289 289 288 286 282 281 281 281 281 281 279 273 274 274 274 272 270 266 264 265 249 249 252 250 247 249 247 248 247 252
298 296 294 293 293 292 291 291 289 287 286 289 288 285 284 283 284 282 284 283 277 275 275 274 273 270 265 265 253 249 247 251 252 246 253 245 251 248
297 295 294 293 292 290 289 288 287 285 285 285 285 284 283 281 283 283 282 283 278 276 278 274 278 277 278 282 256 245 253 252 258 245 254 250 252 251
297 296 294 293 293 292 290 288 286 285 284 285 285 283 281 280 281 281 279 276 278 281 275 281 276 277 272 272 281 257 249 250 248 262 254 249 253 256
303 301 300 298 294 290 287 285 284 287 289 289 288 286 283 284 282 281 280 279 279 280 284 278 283 272 276 273 278 274 259 256 256 262 252 255 250 249
309 307 305 302 299 297 297 293 284 280 284 290 292 290 286 284 287 283 281 280 279 280 281 281 281 278 265 265 270 271 266 261 251 258 247 246 250 248
306 305 303 303 301 300 300 297 295 288 283 284 288 291 286 282 282 284 282 282 278 278 278 278 278 284 274 266 268 253 266 264 259 254 242 247 253 244
305 304 303 301 303 303 304 302 299 292 285 282 282 289 287 282 282 285 280 280 278 277 274 275 277 282 273 268 265 265 257 249 248 254 248 243 234 229
308 306 306 309 308 308 309 307 302 298 294 288 286 292 285 287 281 281 279 272 276 278 273 277 277 268 271 266 264 264 258 243 248 234 228 219 222 234
305 307 311 310 312 311 312 302 300 297 296 293 295 294 292 291 282 284 283 282 280 276 275 275 275 267 265 260 267 257 240 242 225 216 213 219 224 231
309 312 313 315 314 316 313 306 302 297 295 293 294 301 296 289 286 286 282 278 275 273 273 274 271 266 259 248 261 240 237 217 205 209 219 222 226 228
313 312 314 315 317 316 315 312 305 300 296 298 303 307 308 299 289 287 281 278 274 272 273 265 255 248 245 244 226 229 204 196 208 215 217 224 225 223
313 314 317 317 317 318 315 310 305 303 301 307 306 313 311 303 294 288 284 279 276 265 257 242 223 217 212 204 198 192 194 207 218 218 221 221 224 231
307 315 316 319 319 321 318 315 311 305 304 309 315 317 311 304 295 291 284 275 241 294 289 205 158 177 181 194 196 198 197 196 210 215 218 225 234 237
312 315 317 319 320 323 322 320 319 311 314 318 321 316 312 308 306 298 276 221 169 163 205 192 192 188 190 181 167 186 201 209 215 224 232 237 239 238
314 314 317 319 321 324 325 325 323 322 324 320 321 321 316 311 305 283 234 183 153 155 172 172 145 108 152 176 199 208 215 223 233 239 238 235 236 239
316 319 320 321 325 326 327 327 326 328 320 325 326 322 318 311 290 220 169 145 134 142 111 113 148 161 182 198 213 232 243 243 240 238 237 236 236 247
321 321 321 324 327 327 330 330 329 324 327 330 330 334 341 80 141 137 128 126 115 116 129 141 157 183 224 243 245 245 245 247 251 255 259 259 255 250
321 321 322 326 327 330 331 330 330 328 333 334 352 17 86 107 111 111 104 108 115 113 117 140 216 236 255 266 273 276 270 269 262 250 250 249 246 250
322 322 326 328 330 333 333 334 332 336 337 355 44 83 96 97 94 101 103 98 91 83 78 33 322 305 308 299 284 273 232 251 256 246 242 242 237 220